Regional Weather Roundup
Issued by NWS

Home | Current Version | Previous Version | Text Only | Print | Product List | Glossary On
Versions: 1 2 3 4 5 6 7 8 9 10 11 12 13 14 15 16 17 18 19 20 21 22 23 24 25 26 27 28 29 30 31 32 33 34 35 36 37 38 39 40 41 42 43 44 45 46 47 48 49 50
000
ASUS43 KLOT 181909
RWRIL

ILLINOIS REGIONAL WEATHER ROUNDUP
NATIONAL WEATHER SERVICE CHICAGO/ROMEOVILLE IL
200 PM CDT WED OCT 18 2017

NOTE: "FAIR" INDICATES FEW OR NO CLOUDS BELOW 12,000 FEET WITH NO
SIGNIFICANT WEATHER AND/OR OBSTRUCTIONS TO VISIBILITY.

* THESE STATIONS ARE NOT UNDER NWS QUALITY CONTROL. THEY ALSO MAY NOT
  REPORT WEATHER SUCH AS PRECIPITATION OR FOG.

ILZ001-002-007-009-015-016-024-182000-
NORTHWEST ILLINOIS

CITY           SKY/WX    TMP DP  RH WIND       PRES   REMARKS
MOLINE         SUNNY     72  44  36 S16       30.02F
STERLING*      SUNNY     72  46  39 S9          N/A
SAVANNA*       SUNNY     71  46  41 S15G21    30.02F
$$

ILZ003-004-008-010-011-017-018-182000-
NORTH CENTRAL ILLINOIS

CITY           SKY/WX    TMP DP  RH WIND       PRES   REMARKS
ROCKFORD       SUNNY     71  42  35 S20G32    30.04F
FREEPORT*      SUNNY     70  44  39 S17G26    30.04F
ROCHELLE*      SUNNY     71  45  39 S14G25    30.06F
DE KALB*       SUNNY     70  45  40 S23       30.07F
PERU*          SUNNY     69  43  38 S20       30.07F
$$

ILZ005-006-012>014-019>023-182000-
NORTHEAST ILLINOIS

CITY           SKY/WX    TMP DP  RH WIND       PRES   REMARKS
CHICAGO-OHARE  SUNNY     69  44  40 S21G28    30.07F
CHICAGO-MIDWAY SUNNY     70  42  36 S16G23    30.08F
AURORA         SUNNY     71  44  37 S18G25    30.07F
LANSING*       SUNNY     69  47  46 S17       30.12F
JOLIET*        SUNNY     71  44  38 S16       30.09F
WAUKEGAN       SUNNY     70  44  39 SW22G29   30.04F
DUPAGE AIRPORT SUNNY     70  44  39 S16G28    30.06F
KANKAKEE*      SUNNY     69  40  35 SW18G24   30.13F
WHEELING       SUNNY     70  44  39 S18       30.07F
MORRIS*        SUNNY     72  40  31 S17G25    30.07F
ROMEOVILLE*    SUNNY     70  43  37 SW18G24   30.08F
NORTHERLY ISL    N/A     68  39  34 S13         N/A
$$

LMZ740>746-182000-
SOUTHERN LAKE MICHIGAN

STATION/POSITION SKY/WX   TEMP    WIND        PRES    VSBY  WAVE
                          AIR SEA DIR/SP/G                  HT/PER
                          (F)     (DEG/KT/KT) (MB)    (MI)  (FT/S)
SOUTHERN BUOY              60 61  190/ 21/ 27 1018.6          6/ 6
WILMETTE HARBOR            65 58  200/ 16/ 21   N/A           3/ 3
HARRISON CRIB              66     190/ 21/ 23   N/A
BURNHAM HARBOR             69     170/ 11/ 19   N/A
CALUMET HARBOR             67     180/ 13/ 20 1018.4F
BURNS HARBOR               67     190/ 20/ 24 1020.0F
MICHIGAN CITY              65     160/ 17/ 22   N/A
MICHIGAN CITY 6N           64 57  200/ 14/ 19   N/A           2/ 3
ST. JOSEPH                 63 58  200/ 14/ 17 1019.9          3/ 4
$$

ILZ025>027-034>036-040-047-049-050-058-095>099-182000-
WEST-CENTRAL ILLINOIS

CITY           SKY/WX    TMP DP  RH WIND       PRES   REMARKS
QUINCY         SUNNY     71  43  36 S15       30.06F
GALESBURG*     SUNNY     71  46  41 S14G21    30.06F
MACOMB*        SUNNY     72  43  34 S17       30.08F
JACKSONVILLE*  SUNNY     71  43  36 SW8G17    30.10F
PITTSFIELD*    SUNNY     72  45  38 S12G17    30.10F
$$

ILZ028>032-037-038-041>044-048-051>054-059>061-182000-
CENTRAL ILLINOIS

CITY           SKY/WX    TMP DP  RH WIND       PRES   REMARKS
PONTIAC        SUNNY     72  41  32 S16G24    30.10F
BLOOMINGTON    SUNNY     70  44  39 S21       30.11F
DECATUR        SUNNY     69  43  38 S16       30.13F
PEORIA         SUNNY     70  44  39 S18       30.08F
LACON*         SUNNY     70  45  40 SW10      30.07F
LINCOLN*       SUNNY     72  44  37 S9G18     30.10F
SPRINGFIELD    SUNNY     72  46  39 S14G21    30.11F
TAYLORVILLE    SUNNY     71  44  38 S12G20    30.13F
$$

ILZ033-039-045-046-055>057-062-063-182000-
EAST-CENTRAL ILLINOIS

CITY           SKY/WX    TMP DP  RH WIND       PRES   REMARKS
CHAMPAIGN      SUNNY     73  40  30 SW17G25   30.15F
DANVILLE*      SUNNY     69  42  37 S16       30.14F
RANTOUL*       SUNNY     71  43  35 S17       30.14F
MATTOON        SUNNY     68  45  43 S12       30.16F
PARIS*         SUNNY     69  47  44 S15G21    30.18F
$$

ILZ079-100>102-182000-
SOUTHWEST ILLINOIS

CITY           SKY/WX    TMP DP  RH WIND       PRES   REMARKS
ALTON          SUNNY     70  48  46 S12       30.13F
CAHOKIA*       SUNNY     75  43  31 S13       30.12F
SPARTA*        SUNNY     71  49  45 S14       30.16F
$$

ILZ064>066-069>071-074>076-080>082-084>086-088>090-092>094-182000-
SOUTH-CENTRAL ILLINOIS

CITY           SKY/WX    TMP DP  RH WIND       PRES   REMARKS
CARBONDALE     SUNNY     70  49  47 SW15      30.18F
CAIRO*         SUNNY     71  47  42 S8        30.20F
EFFINGHAM*     SUNNY     71  45  40 S10G17    30.18F
MARION         SUNNY     72  48  43 S12       30.20F
MT. VERNON     SUNNY     70  49  47 SW16      30.18F
CENTRALIA*     SUNNY     72  48  42 S16       30.16F
SALEM*         SUNNY     73  43  34 SW14G20   30.16F
METROPOLIS*    SUNNY     72  46  39 S10       30.21F
$$

ILZ067-068-072-073-078-083-087-091-182000-
SOUTHEAST ILLINOIS

CITY           SKY/WX    TMP DP  RH WIND       PRES   REMARKS
LAWRENCEVILLE  SUNNY     70  47  43 SW12      30.21F
FLORA*         SUNNY     71  49  44 S10       30.18F
FAIRFIELD*     SUNNY     70  47  43 S9        30.18F
HARRISBURG*    SUNNY     71  48  44 SW7       30.20F
ROBINSON*      SUNNY     69  45  41 S14       30.21F
CARMI*         SUNNY     72  47  41 S9        30.20F
$$

ABBREVIATIONS USED IN REMARKS
   TC - TEMPERATURE IN CELSIUS
  WCI - WIND CHILL INDEX
   HX - HEAT INDEX
  VSB - VISIBILITY
$$





USA.gov is the U.S. government's official web portal to all federal, state and local government web resources and services.